Temperature
15 15 15 15 14 14 14 13 13 13 13 12 12 12 12 12 12 12 12 11 11 11 11 11 11 11 11 11 11 11 11 11 11 11 11 11 11 11 11 11 11 11 10
15 15 15 14 14 14 13 13 13 13 12 12 12 12 12 11 11 11 11 11 11 11 11 11 11 11 11 11 11 11 11 11 11 11 11 11 11 10 10 10 10 10 10
15 15 14 14 14 13 13 13 13 12 12 12 12 11 11 11 11 11 11 11 11 11 11 11 11 11 11 11 11 11 11 10 10 10 10 10 10 10 10 10 10 10 10
15 15 14 14 14 13 13 12 12 12 12 12 11 11 11 11 11 11 11 11 10 10 10 10 10 10 10 10 10 10 10 10 10 10 10 10 10 10 10 10 10 10 10
15 14 14 14 13 13 12 12 12 12 11 11 11 11 11 11 10 10 10 10 10 10 10 10 10 10 10 10 10 10 10 10 10 10 10 10 10 9 9 9 9 10 10
14 14 14 13 13 13 12 12 12 11 11 11 11 11 10 10 10 10 10 10 10 10 10 10 10 10 10 10 10 10 10 10 10 10 10 10 9 9 9 9 9 9 9
14 14 13 13 13 12 12 12 11 11 10 10 10 10 10 10 10 10 10 9 9 9 9 9 9 9 9 9 9 9 9 9 9 9 9 9 9 9 9 9 8 8 8
13 13 13 12 12 12 12 11 11 10 10 10 10 10 10 10 9 9 9 9 9 9 9 9 9 9 9 9 9 9 9 9 9 9 9 9 9 9 8 8 8 8 8
13 13 12 12 12 12 11 11 11 10 10 10 10 9 9 9 9 9 9 9 9 8 8 8 8 8 8 8 8 8 8 8 8 8 8 8 8 8 8 8 8 8 8
13 12 12 12 11 11 11 11 10 10 10 10 9 9 9 9 9 8 8 8 8 8 8 8 8 8 8 8 8 8 8 8 8 8 8 8 8 8 8 8 8 8 7
12 12 11 11 11 11 11 10 10 10 9 9 9 9 9 8 8 8 8 8 8 8 8 8 7 7 7 7 7 7 7 7 7 7 8 8 8 8 7 7 7 7 7
12 11 11 11 11 10 10 10 10 9 9 9 9 9 8 8 8 8 7 7 7 7 7 7 7 7 7 7 7 7 7 7 7 7 7 7 7 7 7 7 7 7 7
11 11 11 11 10 10 10 9 9 9 8 8 8 8 8 8 8 7 7 7 7 7 6 6 6 6 6 6 6 6 6 6 6 6 7 7 7 7 7 7 7 7 6
10 10 10 10 10 9 9 9 8 8 8 8 8 8 8 8 7 7 7 7 7 6 6 6 6 6 6 6 6 6 6 6 6 6 6 6 6 6 6 6 6 6 6
10 10 10 9 9 9 9 8 8 8 8 8 8 7 7 7 7 6 6 6 6 6 6 6 5 5 5 5 5 5 5 5 5 5 5 6 6 6 6 6 6 6 6
9 9 9 9 8 8 8 8 8 7 7 7 7 7 7 6 6 6 6 6 6 5 5 5 5 5 5 5 5 5 5 5 5 5 5 5 5 5 5 5 5 5 5
9 8 8 8 8 8 8 8 7 7 7 7 7 6 6 6 6 6 6 5 5 5 5 5 4 4 4 4 4 4 4 4 4 4 4 4 4 4 4 4 4 4 4
8 8 8 7 7 7 7 7 7 7 7 7 6 6 6 6 6 5 5 5 5 5 4 4 4 4 4 4 4 4 4 4 3 4 3 3 4 4 4 4 4 3 3
7 7 7 7 7 7 7 7 6 6 6 6 6 6 6 5 5 5 5 4 4 4 4 4 4 3 3 3 3 3 3 3 3 3 3 3 3 3 3 3 3 3 3
7 7 7 6 6 6 6 6 6 6 5 5 5 5 5 5 4 4 4 4 4 4 3 3 3 3 3 3 3 3 3 3 3 3 2 2 2 2 2 2 2 2 2
6 6 6 6 6 6 6 5 5 5 5 5 4 4 4 4 4 4 3 3 3 3 3 3 3 3 3 2 2 2 2 2 2 2 2 2 2 2 2 2 2 2 2
6 6 6 5 5 5 5 5 5 4 4 4 4 4 3 3 3 3 3 3 3 3 2 2 2 2 2 2 2 2 2 2 2 2 2 1 1 1 1 1 1 1 1
5 5 5 5 5 5 5 4 4 4 4 3 3 3 3 2 2 2 2 2 2 2 2 2 2 2 2 1 1 1 1 1 1 1 1 1 1 1 1 1 1 1 1
5 5 4 4 4 4 4 4 4 3 3 3 3 2 2 2 2 2 2 2 2 2 1 1 1 1 1 1 1 1 1 1 1 1 1 1 1 1 1 0 0 0 0
4 4 4 4 3 3 3 3 3 3 3 2 2 2 2 2 1 1 1 1 1 1 1 1 1 1 0 0 0 0 0 0 0 0 0 0 0 0 0 0 0 -0 -0
4 3 3 3 3 3 3 2 2 2 2 2 2 1 1 1 1 1 1 0 0 0 0 0 0 0 -0 -0 -0 -0 -0 -0 -0 0 0 -0 -0 -0 -0 -0 -0 -0 -0
Wind_Speed
5 4 4 4 3 3 3 3 2 2 1 2 1 1 0 0 1 1 1 1 1 1 1 1 1 1 1 1 1 1 1 2 2 3 1 2 2 2 3 3 3 3 3
5 5 5 4 3 3 3 3 2 2 2 2 1 1 0 0 0 0 1 1 1 2 2 2 2 1 1 1 1 2 2 2 3 3 2 1 2 2 2 2 3 2 2
5 5 4 4 4 4 3 3 2 2 2 1 2 1 1 1 1 1 1 1 2 2 3 3 3 2 2 2 2 2 2 2 2 2 2 1 1 1 2 2 2 2 2
5 5 5 5 5 4 3 3 3 3 2 2 2 1 1 1 1 1 1 1 1 2 2 3 3 3 4 3 3 3 2 1 2 2 1 1 1 1 1 1 2 2 2
5 4 5 4 3 3 3 2 2 2 2 2 1 1 1 1 1 1 1 1 1 1 2 2 3 3 4 3 3 3 3 2 2 2 1 1 1 1 1 1 1 2 2
4 4 4 3 3 3 3 3 2 2 1 1 1 1 1 2 4 3 2 2 2 2 2 3 3 3 4 4 4 4 4 4 4 3 2 3 3 3 2 1 1 1 2
4 3 3 4 4 4 3 3 3 2 2 1 1 1 2 3 4 3 3 2 2 2 3 3 3 2 2 2 2 3 3 5 6 4 4 4 4 4 3 2 2 2 3
4 3 3 4 4 3 3 3 3 2 2 2 1 1 1 3 3 3 2 1 2 2 3 3 3 3 3 2 1 1 2 3 5 5 5 5 5 4 5 4 4 2 1
3 4 4 4 4 3 3 3 3 2 2 2 1 1 2 3 3 2 1 1 1 2 3 2 2 3 4 3 1 2 3 4 4 5 6 5 4 4 4 2 2 1 2
4 4 4 4 5 5 4 3 2 2 2 2 1 2 2 3 3 2 1 0 1 2 2 2 4 4 4 3 2 2 3 4 3 2 2 2 2 2 4 4 4 3 2
3 3 3 3 4 4 3 3 2 2 2 1 1 2 2 3 3 3 2 1 2 2 2 2 3 4 4 4 3 2 4 3 1 1 1 1 1 1 2 3 4 4 4
2 2 3 3 3 3 3 2 2 3 2 1 1 2 2 2 3 3 3 2 1 1 2 2 3 4 3 3 3 3 3 1 0 0 1 1 1 2 2 3 4 5 5
2 2 2 2 2 3 3 3 2 2 2 2 2 2 2 2 3 4 4 4 3 2 2 3 3 3 3 2 3 3 2 1 1 1 2 3 3 3 2 2 2 3 3
2 2 1 2 2 1 2 3 3 3 2 2 2 3 3 2 3 2 2 2 3 2 2 2 2 2 1 2 2 2 1 2 2 3 3 2 2 1 1 1 2 1 1
2 2 1 1 2 2 2 2 3 4 5 4 4 4 3 4 5 4 2 2 2 2 1 0 1 1 1 1 1 2 1 1 2 2 2 2 2 2 2 1 1 1 2
2 2 1 2 2 2 1 1 1 2 3 3 3 3 3 4 4 4 4 3 2 2 1 1 1 2 2 3 2 2 2 2 2 2 2 3 3 3 3 2 1 2 3
3 2 2 2 2 2 2 2 1 3 3 2 2 1 2 2 2 2 2 2 1 1 1 2 2 3 3 3 3 3 3 3 3 3 3 3 3 3 2 2 2 3 3
3 3 2 2 3 3 3 3 2 2 1 2 2 2 2 2 1 1 1 2 0 0 1 3 3 4 3 3 3 4 3 3 3 3 3 3 3 3 3 3 3 4 4
2 2 2 2 2 2 2 2 2 2 2 1 2 2 2 2 2 1 1 1 2 2 3 3 3 4 4 4 4 4 4 3 3 3 3 3 3 3 3 3 4 5 4
1 2 1 1 1 2 2 2 2 2 2 2 2 2 1 1 1 2 1 2 2 3 3 3 3 3 3 3 3 3 3 3 3 3 3 3 3 3 4 4 4 3 4
1 1 1 1 2 2 2 2 2 2 2 3 3 3 2 2 2 3 3 3 3 3 4 3 3 3 3 3 3 3 4 4 4 4 4 3 3 4 3 4 4 4 3
1 1 1 1 1 2 2 2 2 2 3 3 2 2 3 2 2 3 3 4 4 3 3 3 3 3 3 3 3 3 3 3 3 3 3 4 4 4 3 3 3 3 3
1 1 1 1 1 2 2 1 2 2 2 3 3 2 2 3 3 3 4 4 3 3 3 2 2 3 3 3 3 3 3 4 4 4 4 4 4 4 3 4 4 4 4
1 1 1 1 1 1 2 2 2 3 3 3 3 3 3 3 3 3 3 3 3 3 2 2 3 3 4 3 3 4 4 4 4 4 4 4 4 4 3 3 4 4 4
2 2 2 2 2 2 2 3 3 3 3 3 3 3 3 3 3 3 3 2 3 3 3 2 2 3 3 4 4 4 5 6 5 4 4 3 4 4 4 3 3 3 4
2 2 2 2 2 3 3 3 3 3 3 3 3 2 2 2 3 3 2 2 2 3 3 2 3 3 3 4 4 5 6 6 6 6 3 2 3 3 3 4 4 4 4
Wind_Direction
183 183 180 185 177 167 174 187 185 181 169 171 178 163 166 4 13 28 321 325 276 288 281 225 239 205 194 202 173 178 197 176 217 278 279 307 326 331 339 337 330 333 333
181 177 183 179 170 174 190 200 187 182 185 183 170 165 225 265 255 230 282 297 251 258 266 251 252 228 222 223 196 212 221 204 198 246 285 302 303 301 315 326 332 325 322
174 175 179 183 186 196 204 200 188 183 183 173 163 183 216 239 242 247 235 249 254 251 245 235 241 216 233 233 225 229 234 222 195 203 255 286 305 314 344 339 337 339 322
171 175 185 196 197 199 201 194 192 181 176 187 195 209 226 240 243 253 256 256 269 280 269 253 240 222 224 220 223 219 207 191 175 185 230 283 291 306 344 327 328 330 318
171 182 195 197 185 177 177 179 177 174 182 186 184 251 279 265 260 257 241 255 250 276 290 281 266 253 244 230 229 210 192 190 187 188 220 267 271 274 262 257 286 312 297
172 194 190 173 168 173 180 171 163 169 175 162 184 228 272 277 285 272 256 245 248 250 279 290 287 283 264 252 244 224 197 196 201 198 215 221 244 236 229 227 229 322 297
175 185 180 174 173 180 174 161 174 185 177 182 214 223 258 279 293 287 276 244 235 244 251 269 286 294 296 261 261 264 243 224 208 197 209 224 225 219 200 212 218 221 240
175 183 182 171 176 177 168 177 187 177 182 203 221 236 255 286 301 299 290 262 238 249 251 248 256 276 271 247 225 253 252 249 234 222 218 232 229 212 201 206 212 221 284
182 190 188 175 174 173 182 194 189 175 189 210 219 229 253 287 300 309 336 284 250 264 268 264 258 262 270 250 205 232 273 281 261 240 238 244 247 230 193 150 149 158 272
202 198 189 178 177 184 194 198 191 184 201 206 232 238 244 272 289 290 295 242 246 267 278 273 266 268 270 251 209 203 240 266 269 266 271 277 267 234 204 190 189 193 217
198 182 181 181 186 187 187 180 169 173 177 200 234 257 255 272 283 278 259 221 226 247 268 281 276 278 275 265 248 219 240 255 257 237 262 273 284 263 238 223 206 200 205
161 171 186 192 189 174 169 171 164 163 166 200 240 285 279 279 288 276 267 256 250 225 255 269 272 276 272 274 267 265 265 252 209 194 261 254 255 259 261 252 237 227 224
160 194 206 193 185 177 174 174 170 170 178 210 220 249 276 279 279 283 275 271 265 253 260 272 278 284 282 284 281 284 282 243 210 230 244 246 247 250 254 265 269 254 254
182 216 210 191 193 179 174 175 180 194 204 217 227 241 262 271 268 270 265 271 273 274 283 289 299 305 320 301 304 303 280 229 221 234 249 253 262 260 250 237 246 255 264
187 209 206 199 197 195 193 199 206 217 212 216 222 222 229 254 263 265 254 246 236 230 225 358 348 327 308 296 299 299 292 278 259 257 254 261 260 260 264 256 237 224 232
190 218 212 209 205 198 206 283 283 263 271 260 251 245 251 260 277 280 277 272 260 210 147 228 253 258 257 257 258 269 269 262 255 251 253 248 247 245 251 252 238 232 244
197 216 219 210 204 203 196 202 273 328 339 332 312 293 293 305 310 300 300 307 258 171 212 240 248 250 255 253 248 251 255 254 247 243 250 253 250 247 245 245 241 247 253
200 216 216 215 211 206 204 207 209 220 276 310 323 319 331 330 329 340 18 55 351 286 248 249 254 256 257 254 253 254 258 255 245 242 248 253 250 248 250 252 244 246 256
205 215 217 218 216 210 207 206 207 213 234 275 321 326 325 337 352 2 100 172 235 258 261 262 263 261 255 252 254 254 252 245 244 242 245 248 248 243 248 251 248 252 249
232 242 219 203 213 210 201 204 214 218 229 244 257 275 300 353 327 300 275 253 251 260 265 270 272 266 263 259 257 256 253 246 246 245 247 246 245 244 246 249 249 249 247
224 240 229 207 213 215 212 216 219 218 226 237 252 262 260 243 250 258 264 267 262 265 268 269 271 272 269 268 262 257 258 253 245 246 246 248 247 250 252 248 249 248 251
194 206 213 226 231 231 231 227 221 223 235 248 266 273 268 263 262 262 264 272 273 269 268 266 270 269 266 262 261 263 266 268 259 253 256 254 251 252 251 247 247 249 249
183 198 223 248 244 250 249 237 230 233 240 244 249 258 256 257 259 262 269 274 275 277 279 271 271 281 283 277 271 258 257 263 263 253 254 257 249 247 247 248 249 250 248
189 205 225 244 249 241 241 247 248 249 248 248 252 254 256 258 263 268 271 277 279 282 280 276 277 276 282 289 289 281 274 273 274 263 252 253 254 249 244 246 249 251 250
199 212 225 237 243 245 246 253 257 256 255 255 257 262 264 264 269 273 276 281 284 282 284 276 276 271 275 284 292 292 289 288 286 278 263 248 250 250 245 245 249 256 255
211 219 229 236 240 243 247 255 259 258 256 258 258 260 262 263 267 272 274 280 286 283 284 273 269 271 282 285 287 293 298 297 293 288 271 247 243 247 245 243 247 249 251
Height
1521 1522 1523 1524 1524 1524 1524 1524 1524 1524 1524 1524 1524 1523 1523 1522 1522 1521 1521 1521 1520 1520 1520 1520 1519 1519 1519 1519 1519 1519 1519 1519 1518 1518 1518 1517 1517 1516 1516 1515 1515 1514 1514
1519 1520 1521 1521 1522 1522 1522 1522 1522 1522 1522 1522 1522 1521 1521 1520 1520 1519 1519 1519 1519 1518 1518 1518 1517 1517 1517 1517 1516 1517 1516 1516 1516 1515 1515 1515 1515 1514 1514 1513 1513 1513 1512
1516 1517 1518 1518 1519 1519 1519 1519 1519 1520 1519 1519 1519 1518 1518 1518 1518 1517 1517 1517 1516 1516 1516 1515 1515 1515 1514 1514 1514 1514 1514 1514 1513 1513 1513 1513 1512 1512 1512 1511 1511 1511 1510
1513 1514 1514 1515 1516 1516 1516 1516 1517 1517 1516 1516 1516 1516 1516 1515 1515 1515 1514 1514 1514 1513 1513 1513 1512 1512 1512 1511 1511 1511 1511 1511 1510 1510 1510 1510 1510 1510 1509 1509 1509 1508 1508
1510 1510 1511 1512 1512 1513 1513 1513 1514 1514 1514 1513 1513 1513 1513 1512 1512 1512 1511 1511 1510 1510 1510 1510 1509 1509 1509 1509 1509 1508 1508 1508 1508 1508 1508 1508 1507 1507 1507 1506 1506 1506 1506
1506 1507 1508 1509 1509 1509 1510 1510 1510 1511 1511 1510 1510 1510 1509 1509 1509 1509 1508 1507 1507 1507 1506 1506 1506 1506 1506 1506 1505 1505 1505 1505 1505 1505 1505 1505 1504 1505 1504 1504 1504 1503 1503
1503 1504 1505 1506 1506 1506 1507 1507 1507 1507 1507 1507 1507 1507 1506 1506 1506 1505 1504 1504 1503 1503 1503 1503 1503 1502 1502 1502 1502 1502 1502 1502 1502 1502 1502 1502 1502 1502 1502 1501 1501 1501 1501
1500 1501 1501 1502 1502 1503 1503 1503 1504 1504 1504 1504 1504 1503 1503 1503 1502 1502 1501 1500 1499 1499 1499 1499 1499 1499 1499 1498 1498 1498 1498 1498 1498 1498 1499 1499 1499 1499 1499 1499 1499 1498 1498
1497 1497 1498 1499 1499 1500 1500 1500 1500 1501 1501 1501 1500 1500 1500 1499 1499 1498 1497 1496 1496 1495 1495 1495 1495 1495 1495 1495 1494 1494 1494 1494 1495 1495 1495 1495 1496 1496 1496 1496 1496 1495 1495
1494 1495 1495 1496 1496 1496 1496 1497 1497 1497 1497 1498 1497 1497 1496 1496 1496 1495 1494 1493 1492 1492 1491 1491 1491 1491 1491 1491 1491 1490 1490 1490 1491 1491 1491 1491 1492 1492 1492 1493 1492 1492 1491
1491 1492 1492 1492 1493 1493 1493 1493 1494 1494 1494 1494 1494 1493 1493 1493 1492 1492 1491 1490 1489 1488 1488 1487 1488 1488 1488 1487 1487 1487 1486 1487 1487 1487 1487 1487 1488 1488 1488 1488 1489 1489 1488
1489 1489 1489 1489 1490 1490 1490 1490 1490 1490 1490 1490 1490 1490 1490 1490 1489 1489 1488 1487 1486 1485 1484 1484 1484 1484 1484 1484 1483 1483 1483 1483 1483 1483 1483 1483 1483 1484 1484 1484 1484 1484 1485
1486 1486 1486 1486 1486 1486 1487 1487 1487 1487 1487 1487 1487 1486 1486 1486 1486 1486 1485 1484 1483 1483 1482 1481 1481 1481 1480 1480 1480 1480 1480 1479 1479 1479 1479 1479 1480 1480 1480 1480 1480 1480 1480
1483 1483 1483 1483 1483 1483 1483 1483 1483 1483 1483 1483 1483 1483 1482 1482 1482 1482 1481 1480 1480 1479 1479 1478 1478 1477 1477 1476 1476 1476 1476 1476 1475 1475 1475 1475 1476 1476 1475 1475 1475 1475 1475
1480 1480 1480 1479 1479 1479 1480 1480 1480 1480 1480 1480 1480 1479 1479 1478 1479 1479 1478 1477 1476 1476 1475 1475 1474 1473 1472 1472 1472 1472 1471 1471 1471 1471 1471 1471 1471 1471 1471 1471 1471 1470 1470
1477 1476 1476 1476 1476 1476 1476 1477 1477 1477 1477 1477 1477 1476 1476 1476 1475 1475 1474 1474 1473 1472 1472 1470 1469 1469 1468 1468 1467 1467 1467 1467 1467 1466 1466 1466 1466 1466 1466 1466 1466 1466 1465
1474 1474 1473 1473 1473 1473 1473 1472 1472 1473 1473 1473 1473 1473 1472 1472 1472 1471 1470 1469 1469 1468 1467 1466 1465 1465 1464 1464 1463 1463 1463 1463 1462 1462 1462 1462 1462 1461 1461 1461 1461 1461 1461
1471 1471 1471 1470 1470 1469 1469 1469 1469 1468 1468 1468 1469 1469 1468 1468 1468 1467 1466 1465 1464 1464 1462 1462 1461 1460 1460 1459 1459 1458 1458 1458 1457 1457 1457 1457 1457 1456 1456 1456 1456 1456 1456
1468 1468 1468 1467 1467 1466 1466 1466 1465 1465 1465 1464 1464 1464 1464 1464 1464 1463 1462 1461 1460 1459 1458 1457 1456 1456 1455 1454 1454 1453 1453 1452 1452 1452 1452 1452 1452 1452 1451 1452 1451 1451 1451
1465 1465 1464 1464 1463 1463 1463 1462 1462 1461 1461 1461 1460 1460 1460 1459 1458 1458 1458 1457 1456 1455 1454 1453 1452 1451 1450 1450 1449 1448 1448 1448 1447 1447 1447 1447 1447 1447 1447 1447 1447 1447 1446
1462 1462 1461 1461 1460 1460 1459 1459 1458 1458 1457 1457 1456 1456 1456 1455 1454 1453 1453 1452 1451 1450 1450 1448 1447 1446 1445 1445 1444 1443 1443 1442 1442 1442 1442 1442 1442 1442 1442 1442 1442 1442 1442
1459 1458 1458 1457 1457 1456 1456 1455 1455 1454 1453 1453 1452 1452 1452 1451 1450 1449 1449 1448 1447 1446 1445 1444 1443 1442 1441 1440 1440 1439 1438 1437 1437 1437 1437 1437 1437 1437 1437 1437 1437 1437 1437
1456 1455 1455 1454 1453 1453 1452 1451 1451 1450 1449 1449 1448 1448 1447 1446 1445 1445 1444 1444 1443 1442 1441 1440 1438 1437 1437 1436 1435 1434 1433 1433 1433 1433 1432 1432 1432 1432 1432 1432 1432 1432 1432
1452 1452 1451 1450 1449 1449 1448 1447 1447 1446 1445 1445 1444 1443 1442 1442 1441 1440 1439 1439 1438 1437 1436 1435 1434 1433 1432 1431 1431 1430 1429 1429 1429 1428 1428 1427 1427 1427 1427 1427 1427 1427 1427
1449 1448 1447 1446 1446 1445 1444 1443 1442 1442 1441 1440 1439 1439 1438 1437 1436 1435 1435 1434 1433 1432 1431 1430 1429 1428 1427 1427 1426 1426 1425 1424 1424 1424 1423 1423 1422 1422 1422 1422 1422 1422 1422
1445 1444 1443 1443 1442 1441 1440 1439 1438 1437 1437 1436 1435 1434 1434 1433 1432 1431 1431 1430 1429 1428 1427 1426 1425 1425 1424 1423 1422 1421 1421 1420 1420 1419 1419 1418 1418 1417 1417 1417 1417 1417 1417